• In Belgium
  • List of Countries
  • For 7 days
  • Water Temperature
  • Satellite Maps
  • Weather Map
  • Weather Widgets
  • user-avatar
    Login

    Hourly Weather Boussu

    Today, 17 October, Tuesday

    Time Temperature Precipitation Wind Pressure Humidity
    00:00 +16°C° 0 mm 2 mps 762 mmHg 90%
    01:00 +15°C° 0 mm 2 mps 762 mmHg 90%
    02:00 +15°C° 0 mm 1 mps 762 mmHg 90%
    03:00 +14°C° 0 mm 1 mps 762 mmHg 90%
    04:00 +14°C° 0 mm 1 mps 762 mmHg 90%
    05:00 +14°C° 0 mm 1 mps 762 mmHg 90%
    06:00 +14°C° 0 mm 1 mps 762 mmHg 91%
    07:00 +15°C° 0 mm 1 mps 762 mmHg 86%
    08:00 +16°C° 0 mm 1 mps 762 mmHg 80%
    09:00 +18°C° 0 mm 1 mps 762 mmHg 75%
    10:00 +19°C° 0 mm 1 mps 762 mmHg 71%
    11:00 +20°C° 0 mm 1 mps 762 mmHg 67%
    12:00 +22°C° 0 mm 1 mps 761 mmHg 63%
    13:00 +22°C° 0 mm 1 mps 761 mmHg 64%
    14:00 +22°C° 0 mm 1 mps 760 mmHg 64%
    15:00 +22°C° 0 mm 1 mps 760 mmHg 65%
    16:00 +21°C° 0 mm 1 mps 759 mmHg 70%
    17:00 +20°C° 0 mm 1 mps 759 mmHg 76%
    18:00 +17°C° 0 mm 2 mps 759 mmHg 81%
    19:00 +17°C° 0 mm 2 mps 759 mmHg 82%
    20:00 +17°C° 0 mm 2 mps 759 mmHg 83%
    21:00 +17°C° 0 mm 2 mps 758 mmHg 84%
    22:00 +16°C° 0 mm 2 mps 758 mmHg 86%
    23:00 +16°C° 0 mm 2 mps 758 mmHg 88%

    Tomorrow, 18 October, Wednesday

    Time Temperature Precipitation Wind Pressure Humidity
    00:00 +16°C° 0 mm 2 mps 757 mmHg 90%
    01:00 +15°C° 0 mm 2 mps 757 mmHg 89%
    02:00 +14°C° 0 mm 2 mps 756 mmHg 89%
    03:00 +13°C° 0 mm 3 mps 756 mmHg 89%
    04:00 +13°C° 0 mm 3 mps 756 mmHg 87%
    05:00 +12°C° 0 mm 3 mps 756 mmHg 85%
    06:00 +12°C° 0 mm 3 mps 756 mmHg 83%
    07:00 +13°C° 0 mm 3 mps 756 mmHg 79%
    08:00 +14°C° 0 mm 3 mps 756 mmHg 75%
    09:00 +17°C° 0 mm 4 mps 756 mmHg 71%
    10:00 +18°C° 0 mm 4 mps 755 mmHg 69%
    11:00 +19°C° 0 mm 4 mps 755 mmHg 68%
    12:00 +21°C° 0 mm 4 mps 755 mmHg 67%
    13:00 +21°C° 0 mm 4 mps 755 mmHg 67%
    14:00 +21°C° 0 mm 3 mps 755 mmHg 68%
    15:00 +21°C° 0 mm 3 mps 754 mmHg 68%
    16:00 +20°C° 0 mm 3 mps 754 mmHg 72%
    17:00 +18°C° 0 mm 3 mps 754 mmHg 77%
    18:00 +17°C° 0 mm 3 mps 755 mmHg 81%
    19:00 +16°C° 0 mm 3 mps 755 mmHg 80%
    20:00 +16°C° 0 mm 3 mps 755 mmHg 79%
    21:00 +14°C° 0 mm 3 mps 755 mmHg 78%
    22:00 +14°C° 0 mm 3 mps 755 mmHg 79%
    23:00 +14°C° 0 mm 3 mps 754 mmHg 79%

    Day after tomorrow, 19 October, Thursday

    Time Temperature Precipitation Wind Pressure Humidity
    00:00 +13°C° 0 mm 3 mps 754 mmHg 80%
    01:00 +13°C° 0 mm 3 mps 754 mmHg 82%
    02:00 +13°C° 0 mm 3 mps 754 mmHg 83%
    03:00 +13°C° 0 mm 3 mps 753 mmHg 85%
    04:00 +13°C° 0 mm 3 mps 753 mmHg 85%
    05:00 +13°C° 0 mm 3 mps 753 mmHg 85%
    06:00 +13°C° 0 mm 4 mps 753 mmHg 85%
    07:00 +14°C° 0 mm 4 mps 753 mmHg 81%
    08:00 +15°C° 0 mm 4 mps 753 mmHg 78%
    09:00 +16°C° 0 mm 5 mps 753 mmHg 74%
    10:00 +17°C° 0 mm 5 mps 753 mmHg 71%
    11:00 +20°C° 0 mm 5 mps 753 mmHg 68%
    12:00 +21°C° 0 mm 5 mps 753 mmHg 65%
    13:00 +21°C° 0 mm 5 mps 752 mmHg 67%
    14:00 +21°C° 0 mm 5 mps 752 mmHg 68%
    15:00 +21°C° 0 mm 4 mps 751 mmHg 69%
    16:00 +20°C° 0 mm 5 mps 751 mmHg 72%
    17:00 +19°C° 0 mm 5 mps 751 mmHg 74%
    18:00 +17°C° 0 mm 5 mps 751 mmHg 77%
    19:00 +17°C° 0.1 mm 6 mps 751 mmHg 77%
    20:00 +17°C° 0.1 mm 6 mps 751 mmHg 78%
    21:00 +17°C° 0.1 mm 7 mps 751 mmHg 79%
    22:00 +16°C° 0.3 mm 7 mps 751 mmHg 80%
    23:00 +16°C° 0.3 mm 7 mps 751 mmHg 81%

    20 October, Friday

    Time Temperature Precipitation Wind Pressure Humidity
    00:00 +15°C° 0.3 mm 8 mps 751 mmHg 82%
    01:00 +15°C° 0.8 mm 8 mps 751 mmHg 82%
    02:00 +15°C° 0.8 mm 8 mps 751 mmHg 82%
    03:00 +15°C° 0.8 mm 8 mps 751 mmHg 82%
    04:00 +13°C° 0.1 mm 8 mps 752 mmHg 82%
    05:00 +14°C° 0.1 mm 7 mps 752 mmHg 82%
    06:00 +12°C° 0.1 mm 7 mps 753 mmHg 82%
    07:00 +12°C° 0 mm 7 mps 753 mmHg 80%
    08:00 +14°C° 0 mm 7 mps 754 mmHg 77%
    09:00 +14°C° 0 mm 6 mps 755 mmHg 74%
    10:00 +15°C° 0 mm 6 mps 755 mmHg 71%
    11:00 +15°C° 0 mm 6 mps 755 mmHg 68%
    12:00 +16°C° 0 mm 5 mps 756 mmHg 64%
    13:00 +16°C° 0 mm 5 mps 756 mmHg 67%
    14:00 +17°C° 0 mm 4 mps 755 mmHg 71%
    15:00 +18°C° 0 mm 4 mps 755 mmHg 74%
    16:00 +17°C° 0.2 mm 4 mps 755 mmHg 78%
    17:00 +17°C° 0.2 mm 4 mps 755 mmHg 82%
    18:00 +17°C° 0.2 mm 4 mps 755 mmHg 86%
    19:00 +16°C° 0.1 mm 5 mps 754 mmHg 84%
    20:00 +16°C° 0.1 mm 5 mps 754 mmHg 81%
    21:00 +16°C° 0.1 mm 6 mps 754 mmHg 79%
    22:00 +16°C° 0.1 mm 6 mps 753 mmHg 79%
    23:00 +16°C° 0.1 mm 6 mps 753 mmHg 78%

    21 October, Saturday

    Time Temperature Precipitation Wind Pressure Humidity
    00:00 +16°C° 0.1 mm 7 mps 753 mmHg 78%
    01:00 +16°C° 0.9 mm 7 mps 752 mmHg 81%
    02:00 +16°C° 0.9 mm 7 mps 752 mmHg 84%
    03:00 +16°C° 0.9 mm 7 mps 752 mmHg 87%
    04:00 +16°C° 1 mm 7 mps 752 mmHg 87%
    05:00 +16°C° 1 mm 7 mps 752 mmHg 88%
    06:00 +16°C° 1 mm 7 mps 752 mmHg 88%
    07:00 +16°C° 0.4 mm 7 mps 752 mmHg 84%
    08:00 +16°C° 0.4 mm 7 mps 753 mmHg 80%
    09:00 +15°C° 0.4 mm 7 mps 753 mmHg 76%
    10:00 +15°C° 0 mm 8 mps 753 mmHg 71%
    11:00 +15°C° 0 mm 8 mps 753 mmHg 66%
    12:00 +15°C° 0 mm 8 mps 753 mmHg 60%
    13:00 +15°C° 0 mm 8 mps 753 mmHg 60%
    14:00 +15°C° 0 mm 8 mps 753 mmHg 60%
    15:00 +15°C° 0 mm 7 mps 753 mmHg 59%
    16:00 +14°C° 0 mm 7 mps 753 mmHg 61%
    17:00 +14°C° 0 mm 7 mps 753 mmHg 62%
    18:00 +12°C° 0 mm 7 mps 753 mmHg 64%
    19:00 +11°C° 0 mm 7 mps 754 mmHg 64%
    20:00 +11°C° 0 mm 7 mps 754 mmHg 65%
    21:00 +10°C° 0 mm 7 mps 754 mmHg 65%
    22:00 +10°C° 0 mm 7 mps 754 mmHg 67%
    23:00 +10°C° 0 mm 7 mps 754 mmHg 68%

    22 October, Sunday

    Time Temperature Precipitation Wind Pressure Humidity
    00:00 +9°C° 0 mm 7 mps 754 mmHg 69%
    01:00 +9°C° 0 mm 7 mps 754 mmHg 71%
    02:00 +9°C° 0 mm 7 mps 754 mmHg 72%
    03:00 +9°C° 0 mm 7 mps 754 mmHg 74%
    04:00 +9°C° 0.1 mm 7 mps 755 mmHg 74%
    05:00 +9°C° 0.1 mm 7 mps 755 mmHg 74%
    06:00 +9°C° 0.1 mm 7 mps 755 mmHg 75%
    07:00 +9°C° 0.1 mm 8 mps 755 mmHg 73%
    08:00 +9°C° 0.1 mm 8 mps 756 mmHg 72%
    09:00 +10°C° 0.1 mm 9 mps 756 mmHg 70%
    10:00 +10°C° 0.2 mm 9 mps 756 mmHg 68%
    11:00 +11°C° 0.2 mm 9 mps 756 mmHg 66%
    12:00 +11°C° 0.2 mm 9 mps 756 mmHg 64%
    13:00 +11°C° 0.1 mm 9 mps 756 mmHg 65%
    14:00 +11°C° 0.1 mm 8 mps 756 mmHg 67%
    15:00 +11°C° 0.1 mm 8 mps 756 mmHg 68%
    16:00 +11°C° 0.1 mm 7 mps 757 mmHg 71%
    17:00 +10°C° 0.1 mm 6 mps 757 mmHg 73%
    18:00 +10°C° 0.1 mm 6 mps 757 mmHg 75%
    19:00 +10°C° 0.1 mm 5 mps 758 mmHg 77%
    20:00 +10°C° 0.1 mm 5 mps 758 mmHg 78%
    21:00 +10°C° 0.1 mm 5 mps 759 mmHg 80%
    22:00 +9°C° 0.1 mm 5 mps 759 mmHg 82%
    23:00 +9°C° 0.1 mm 5 mps 759 mmHg 85%
    Show more